Погода в Агадыре

Казахстан     48°15′42″N   72°51′15″E
темп.,
°C
ветер,
м/с
пор.,
м/с
влажн.,
%
обл.,
%
осадки,
мм/ч
давл.,
гПа
погр.,
м
23 октября, сб
сб2300:000юз9145599 0.0 1032802
03:000юз91569100 0.0 1032728
06:000юз91578100 0.0 1032635
09:000юз91587100 0.1 1032547
12:00+2юз91593100 0.3 1032494
15:00+7зюз10135470 0.0 1030869
18:00+6зюз813505 0.0 1031561
21:00+4юз714495 0.0 1032394
24 октября, вс
вс2400:00+3юз612500 0.0 1032268
03:00+3юз510520 0.0 1032176
06:00+2юз47540 0.0 103299
09:00+4юз35490 0.0 1031117
12:00+9юз34370 0.0 1029562
15:00+11юз23350 0.0 1027883
18:00+9ююз22425 0.0 102612
21:00+7ю33475 0.0 102628
25 октября, пн
пн2500:00+5ююв334934 0.0 102633
03:00+4ююв22535 0.0 102416
06:00+4ююв335571 0.0 102415
09:00+5ююв335084 0.0 102352
12:00+11юв3334100 0.0 1021388
15:00+13юв3329100 0.0 1018690
18:00+10юв3337100 0.0 101830
21:00+8ююв3445100 0.0 101844
26 октября, вт
вт2600:00+7ююв3548100 0.0 101761
03:00+5ююв33505 0.0 101525
06:00+4ююв4549100 0.0 101563
09:00+5ю4124854 0.0 1014315
12:00+12зюз711328 0.0 1011815
15:00+13зюз81128100 0.0 10111193
18:00+10зюз5838100 0.0 1013168
21:00+7з4846100 0.0 1015167
27 октября, ср
ср2700:00+7сз4749100 0.0 1018244
03:00+5ссз3483100 0.0 1020310
06:00+4юз1389100 0.4 1021848
09:00+2сз5596100 0.6 1023380
12:00+2ссз3595100 0.6 1025330
15:00+3с447796 0.0 1025703
18:00+3с3467100 0.0 1026955
21:00+3с3364100 0.0 1028923